Location: Roswell
(33.3943°N, 104.5230°W)
Time: 14:58:10
(UTC+00:00)

Vanguard 2 Rocket - Pass Details

Date: 19 November 2024
Orbit: 554 x 3296 km, 32.9° (Epoch: 30 November)

Event Time Altitude Azimuth Distance (km) Brightness Sun altitude
Exits shadow 11:32:53 14° 221° (SW) 3,337 9.5 -25.1°
Maximum altitude 11:41:25 55° 149° (SSE) 2,432 9.1 -23.3°
Drops below altitude 10° 11:57:28 10° 78° (ENE) 5,832 12.0 -20.0°
Sets 12:02:44 0° 75° (ENE) 7,089 12.6 -18.9°
